This is the latest recevied weather packets stored in our database for station/object DB0LS-15. If no packets are shown the sender has not sent any weather packets the latest 10 day(s).
| Time | Temp. | Humidity | Pressure | Rain* | Wind** | Luminosity | Snow |
|---|---|---|---|---|---|---|---|
| 1777632062 | 18.33° C | 43% | 1011.2 hPa | 0 mm | - | - | - |
| 1777631458 | 18.33° C | 43% | 1011.4 hPa | 0 mm | - | - | - |
| 1777630855 | 18.33° C | 45% | 1011.5 hPa | 0 mm | - | - | - |
| 1777630251 | 17.78° C | 46% | 1011.7 hPa | 0 mm | - | - | - |
| 1777629647 | 18.33° C | 46% | 1011.7 hPa | 0 mm | - | - | - |
| 1777629043 | 17.78° C | 47% | 1011.9 hPa | 0 mm | - | - | - |
| 1777628439 | 17.78° C | 49% | 1011.9 hPa | 0 mm | - | - | - |
| 1777627835 | 18.33° C | 47% | 1012.1 hPa | 0 mm | - | - | - |
| 1777627232 | 17.22° C | 49% | 1012.1 hPa | 0 mm | - | - | - |
| 1777626628 | 17.78° C | 48% | 1012.2 hPa | 0 mm | - | - | - |
| 1777626024 | 16.67° C | 48% | 1012.2 hPa | 0 mm | - | - | - |
| 1777625425 | 16.67° C | 49% | 1012.3 hPa | 0 mm | - | - | - |
| 1777624817 | 16.11° C | 49% | 1012.3 hPa | 0 mm | - | - | - |
| 1777624273 | 16.11° C | 50% | 1012.4 hPa | 0 mm | - | - | - |
| 1777623669 | 16.11° C | 52% | 1012.4 hPa | 0 mm | - | - | - |
| 1777623066 | 16.67° C | 53% | 1012.5 hPa | 0 mm | - | - | - |
| 1777622462 | 15.56° C | 55% | 1012.4 hPa | 0 mm | - | - | - |
| 1777621858 | 15° C | 56% | 1012.4 hPa | 0 mm | - | - | - |
| 1777621254 | 15° C | 58% | 1012.6 hPa | 0 mm | - | - | - |
| 1777620650 | 13.89° C | 60% | 1012.5 hPa | 0 mm | - | - | - |
| 1777620047 | 13.89° C | 59% | 1012.6 hPa | 0 mm | - | - | - |
| 1777619443 | 13.33° C | 61% | 1012.7 hPa | 0 mm | - | - | - |
| 1777618839 | 12.78° C | 63% | 1012.6 hPa | 0 mm | - | - | - |
| 1777618236 | 12.22° C | 66% | 1012.7 hPa | 0 mm | - | - | - |
| 1777617632 | 11.67° C | 68% | 1012.6 hPa | 0 mm | - | - | - |
* Rain latest hour (hover to see other rain measurements)
** Current wind speed in m/s (hover to see current wind gust speed)